| time (UTC) | temp F | wind direction | speed MPH | gust MPH | rain 1hr in | rain 24hr in | rain mn in | humidity % | barometer mb |
| 20260906210114 | 83 | 174 | 13.0 | 22.0 | 0.00 | 0.00 | 0.00 | 42 | 1019.3 |
| 20260906204604 | 83 | 149 | 9.0 | 17.0 | 0.00 | 0.00 | 0.00 | 42 | 1019.3 |
| 20260906203111 | 84 | 200 | 7.0 | 15.0 | 0.00 | 0.00 | 0.00 | 41 | 1019.5 |
| 20260906201614 | 84 | 142 | 10.0 | 20.0 | 0.00 | 0.00 | 0.00 | 42 | 1019.5 |
| 20260906200115 | 85 | 143 | 5.0 | 14.0 | 0.00 | 0.00 | 0.00 | 41 | 1019.5 |
| 20260906194631 | 83 | 188 | 5.0 | 16.0 | 0.00 | 0.00 | 0.00 | 40 | 1019.5 |
| 20260906193107 | 84 | 172 | 7.0 | 14.0 | 0.00 | 0.00 | 0.00 | 39 | 1019.7 |
| 20260906191609 | 83 | 167 | 8.0 | 13.0 | 0.00 | 0.00 | 0.00 | 41 | 1019.8 |
| 20260906190108 | 83 | 193 | 8.0 | 12.0 | 0.00 | 0.00 | 0.00 | 41 | 1019.9 |
| 20260906184615 | 82 | 88 | 4.0 | 16.0 | 0.00 | 0.00 | 0.00 | 43 | 1020.0 |
| 20260906183106 | 81 | 103 | 8.0 | 14.0 | 0.00 | 0.00 | 0.00 | 43 | 1020.3 |
| 20260906181605 | 81 | 167 | 7.0 | 14.0 | 0.00 | 0.00 | 0.00 | 45 | 1020.5 |
| 20260906180107 | 80 | 195 | 8.0 | 18.0 | 0.00 | 0.00 | 0.00 | 45 | 1020.6 |
| 20260906174606 | 80 | 170 | 8.0 | 15.0 | 0.00 | 0.00 | 0.00 | 45 | 1020.9 |
| 20260906173109 | 78 | 207 | 7.0 | 12.0 | 0.00 | 0.00 | 0.00 | 48 | 1021.2 |
| 20260906171610 | 78 | 184 | 4.0 | 9.0 | 0.00 | 0.00 | 0.00 | 49 | 1021.2 |
| 20260906170106 | 76 | 163 | 5.0 | 10.0 | 0.00 | 0.00 | 0.00 | 50 | 1021.3 |
| 20260906164608 | 76 | 162 | 7.0 | 15.0 | 0.00 | 0.00 | 0.00 | 52 | 1021.6 |
| 20260906163110 | 75 | 211 | 3.0 | 8.0 | 0.00 | 0.00 | 0.00 | 53 | 1021.8 |
| 20260906161607 | 74 | 186 | 7.0 | 14.0 | 0.00 | 0.00 | 0.00 | 54 | 1022.0 |
| 20260906160105 | 73 | 298 | 6.0 | 16.0 | 0.00 | 0.00 | 0.00 | 54 | 1022.1 |
| 20260906154607 | 73 | 173 | 9.0 | 16.0 | 0.00 | 0.00 | 0.00 | 55 | 1022.0 |
| 20260906153107 | 72 | 242 | 6.0 | 12.0 | 0.00 | 0.00 | 0.00 | 56 | 1022.0 |
| 20260906151606 | 71 | 203 | 6.0 | 11.0 | 0.00 | 0.00 | 0.00 | 58 | 1022.1 |
| 20260906150109 | 70 | 168 | 6.0 | 12.0 | 0.00 | 0.00 | 0.00 | 61 | 1022.1 |
| 20260906144622 | 69 | 172 | 6.0 | 14.0 | 0.00 | 0.00 | 0.00 | 61 | 1022.4 |
| 20260906143107 | 68 | 155 | 4.0 | 11.0 | 0.00 | 0.00 | 0.00 | 64 | 1022.4 |
| 20260906141637 | 67 | 207 | 4.0 | 13.0 | 0.00 | 0.00 | 0.00 | 68 | 1022.5 |
| 20260906140110 | 64 | 188 | 3.0 | 10.0 | 0.00 | 0.00 | 0.00 | 76 | 1022.4 |
| 20260906134608 | 59 | 0 | 1.0 | 3.0 | 0.00 | 0.00 | 0.00 | 92 | 1022.5 |
| 20260906133106 | 54 | 0 | 0.0 | 0.0 | 0.00 | 0.00 | 0.00 | 96 | 1022.4 |
| 20260906131607 | 52 | 0 | 0.0 | 0.0 | 0.00 | 0.00 | 0.00 | 97 | 1022.3 |
| 20260906130104 | 50 | 0 | 0.0 | 0.0 | 0.00 | 0.00 | 0.00 | 97 | 1022.1 |
| 20260906124604 | 49 | 0 | 0.0 | 0.0 | 0.00 | 0.00 | 0.00 | 97 | 1022.2 |
| 20260906123108 | 49 | 0 | 0.0 | 0.0 | 0.00 | 0.00 | 0.00 | 96 | 1022.0 |
| 20260906121604 | 49 | 0 | 0.0 | 0.0 | 0.00 | 0.00 | 0.00 | 96 | 1022.0 |
| 20260906120107 | 50 | 0 | 0.0 | 0.0 | 0.00 | 0.00 | 0.00 | 95 | 1022.1 |
| 20260906114604 | 50 | 0 | 0.0 | 0.0 | 0.00 | 0.00 | 0.00 | 96 | 1021.9 |
| 20260906113107 | 51 | 0 | 0.0 | 0.0 | 0.00 | 0.00 | 0.00 | 94 | 1021.9 |
| 20260906111604 | 51 | 0 | 0.0 | 0.0 | 0.00 | 0.00 | 0.00 | 96 | 1021.9 |
| 20260906110107 | 51 | 0 | 0.0 | 0.0 | 0.00 | 0.00 | 0.00 | 96 | 1022.1 |
| 20260906104630 | 51 | 0 | 0.0 | 0.0 | 0.00 | 0.00 | 0.00 | 95 | 1022.0 |
| 20260906103115 | 51 | 236 | 0.0 | 2.0 | 0.00 | 0.00 | 0.00 | 95 | 1022.0 |
| 20260906101603 | 51 | 236 | 0.0 | 3.0 | 0.00 | 0.00 | 0.00 | 94 | 1022.0 |
| 20260906100104 | 52 | 0 | 0.0 | 0.0 | 0.00 | 0.00 | 0.00 | 94 | 1022.0 |
| 20260906094643 | 52 | 0 | 0.0 | 0.0 | 0.00 | 0.00 | 0.00 | 94 | 1022.0 |
| 20260906093111 | 52 | 0 | 0.0 | 1.0 | 0.00 | 0.00 | 0.00 | 93 | 1021.9 |
| 20260906091619 | 52 | 0 | 0.0 | 3.0 | 0.00 | 0.00 | 0.00 | 90 | 1021.9 |
| 20260906090108 | 52 | 0 | 0.0 | 0.0 | 0.00 | 0.00 | 0.00 | 93 | 1022.0 |
| 20260906084607 | 51 | 0 | 0.0 | 0.0 | 0.00 | 0.00 | 0.00 | 92 | 1022.1 |
| 20260906083113 | 52 | 0 | 0.0 | 0.0 | 0.00 | 0.00 | 0.00 | 92 | 1022.0 |
| 20260906081606 | 52 | 0 | 0.0 | 0.0 | 0.00 | 0.00 | 0.00 | 93 | 1022.2 |
| 20260906080104 | 51 | 0 | 0.0 | 3.0 | 0.00 | 0.00 | 0.00 | 93 | 1022.3 |
| 20260906074613 | 51 | 317 | 2.0 | 5.0 | 0.00 | 0.00 | 0.00 | 90 | 1022.2 |
| 20260906073106 | 52 | 0 | 0.0 | 0.0 | 0.00 | 0.00 | 0.00 | 91 | 1021.9 |
| 20260906071607 | 53 | 0 | 0.0 | 0.0 | 0.00 | 0.00 | 0.00 | 88 | 1021.9 |
| 20260906070104 | 54 | 0 | 0.0 | 4.0 | 0.00 | 0.00 | 0.00 | 89 | 1021.9 |
| 20260906064620 | 53 | 0 | 0.0 | 0.0 | 0.00 | 0.00 | 0.00 | 86 | 1021.9 |
| 20260906063103 | 54 | 0 | 0.0 | 0.0 | 0.00 | 0.00 | 0.00 | 84 | 1021.8 |
| 20260906061606 | 54 | 0 | 0.0 | 0.0 | 0.00 | 0.00 | 0.00 | 81 | 1021.7 |
| 20260906060111 | 55 | 0 | 0.0 | 0.0 | 0.00 | 0.00 | 0.00 | 79 | 1021.9 |
| 20260906054607 | 55 | 0 | 0.0 | 0.0 | 0.00 | 0.00 | 0.00 | 77 | 1021.7 |
| 20260906053110 | 56 | 0 | 0.0 | 0.0 | 0.00 | 0.00 | 0.00 | 77 | 1022.1 |
| 20260906051605 | 56 | 0 | 0.0 | 0.0 | 0.00 | 0.00 | 0.00 | 76 | 1022.3 |
| 20260906050133 | 56 | 0 | 0.0 | 0.0 | 0.00 | 0.00 | 0.00 | 77 | 1022.6 |
| 20260906044606 | 56 | 0 | 0.0 | 0.0 | 0.00 | 0.00 | 0.00 | 75 | 1022.4 |
| 20260906043105 | 57 | 0 | 0.0 | 0.0 | 0.00 | 0.00 | 0.00 | 75 | 1022.5 |
| 20260906041608 | 57 | 0 | 0.0 | 0.0 | 0.00 | 0.00 | 0.00 | 74 | 1022.3 |
| 20260906040139 | 57 | 0 | 0.0 | 0.0 | 0.00 | 0.00 | 0.00 | 72 | 1022.1 |
| 20260906034609 | 58 | 0 | 0.0 | 0.0 | 0.00 | 0.00 | 0.00 | 70 | 1022.3 |
| 20260906033109 | 59 | 0 | 0.0 | 0.0 | 0.00 | 0.00 | 0.00 | 69 | 1022.3 |
| 20260906031606 | 60 | 0 | 0.0 | 0.0 | 0.00 | 0.00 | 0.00 | 68 | 1022.5 |
| 20260906030111 | 61 | 0 | 0.0 | 4.0 | 0.00 | 0.00 | 0.00 | 66 | 1022.4 |
| 20260906024608 | 62 | 0 | 0.0 | 1.0 | 0.00 | 0.00 | 0.00 | 63 | 1022.2 |
| 20260906023104 | 64 | 0 | 0.0 | 2.0 | 0.00 | 0.00 | 0.00 | 61 | 1021.8 |
| 20260906021609 | 66 | 0 | 0.0 | 0.0 | 0.00 | 0.00 | 0.00 | 58 | 1021.6 |
| 20260906020107 | 68 | 0 | 0.0 | 0.0 | 0.00 | 0.00 | 0.00 | 54 | 1021.5 |
| 20260906014610 | 70 | 0 | 0.0 | 0.0 | 0.00 | 0.00 | 0.00 | 51 | 1021.6 |
| 20260906013103 | 72 | 0 | 0.0 | 2.0 | 0.00 | 0.00 | 0.00 | 49 | 1021.5 |
| 20260906011604 | 74 | 0 | 0.0 | 2.0 | 0.00 | 0.00 | 0.00 | 47 | 1021.5 |
| 20260906010110 | 75 | 103 | 0.0 | 6.0 | 0.00 | 0.00 | 0.00 | 45 | 1021.5 |
| 20260906004608 | 76 | 81 | 3.0 | 10.0 | 0.00 | 0.00 | 0.00 | 44 | 1021.6 |
| 20260906003105 | 78 | 123 | 7.0 | 17.0 | 0.00 | 0.00 | 0.00 | 41 | 1021.7 |
| 20260906001621 | 79 | 90 | 4.0 | 13.0 | 0.00 | 0.00 | 0.00 | 35 | 1021.6 |
| 20260906000108 | 79 | 113 | 6.0 | 12.0 | 0.00 | 0.00 | 0.00 | 35 | 1021.5 |
| 20260905234602 | 79 | 169 | 4.0 | 8.0 | 0.00 | 0.00 | 0.00 | 37 | 1021.2 |
| 20260905233113 | 80 | 182 | 5.0 | 10.0 | 0.00 | 0.00 | 0.00 | 36 | 1020.9 |
| 20260905231607 | 81 | 122 | 2.0 | 11.0 | 0.00 | 0.00 | 0.00 | 37 | 1020.9 |
| 20260905230115 | 82 | 150 | 6.0 | 12.0 | 0.00 | 0.00 | 0.00 | 35 | 1021.0 |
| 20260905224610 | 83 | 133 | 3.0 | 11.0 | 0.00 | 0.00 | 0.00 | 31 | 1020.9 |
| 20260905223106 | 83 | 133 | 2.0 | 7.0 | 0.00 | 0.00 | 0.00 | 32 | 1020.8 |
| 20260905221612 | 84 | 173 | 7.0 | 12.0 | 0.00 | 0.00 | 0.00 | 31 | 1020.6 |
| 20260905220106 | 84 | 104 | 2.0 | 9.0 | 0.00 | 0.00 | 0.00 | 31 | 1020.5 |
| 20260905214606 | 84 | 118 | 2.0 | 10.0 | 0.00 | 0.00 | 0.00 | 31 | 1020.4 |
| 20260905213110 | 83 | 243 | 4.0 | 8.0 | 0.00 | 0.00 | 0.00 | 31 | 1020.6 |
| 20260905211604 | 83 | 174 | 4.0 | 11.0 | 0.00 | 0.00 | 0.00 | 33 | 1021.1 |